Volver al catálogo

SCOUT G-1 DEB

LostPO
NORAD 28674·DEBRIS·🇺🇸 United States

Lanzado Aug 25, 1988 desde Vandenberg Space Force Base

Loading…

Próximos Pases (próximas 24 horas)

TLE

ObsoletoSource: Space-Track

Época: Dec 31, 2014, 17:34 UTC

1 28674U 88074K   14365.73238720  .00000230  00000-0  19579-3 0  9994
2 28674  89.8757 351.1535 0061115 104.1854  21.2319 13.83551164503310

Sigue SCOUT G-1 DEB en tiempo real con AllMySat

Download on the App Store